This is the latest recevied weather packets stored in our database for station/object ke5jzm-1. If no packets are shown the sender has not sent any weather packets the latest 10 day(s).
| Time | Temp. | Humidity | Pressure | Rain* | Wind** | Luminosity | Snow |
|---|---|---|---|---|---|---|---|
| 1777576543 | 25.56° C | 62% | 1011 hPa | 8.89 mm | - | 57 W/m² | - |
| 1777576483 | 25.56° C | 62% | 1010.9 hPa | 8.89 mm | - | 56 W/m² | - |
| 1777576424 | 25.56° C | 62% | 1010.8 hPa | 8.64 mm | - | 56 W/m² | - |
| 1777576363 | 25.56° C | 62% | 1010.7 hPa | 8.38 mm | - | 57 W/m² | - |
| 1777576303 | 25.56° C | 62% | 1010.5 hPa | 8.38 mm | - | 57 W/m² | - |
| 1777576243 | 25.56° C | 62% | 1010.4 hPa | 8.38 mm | - | 57 W/m² | - |
| 1777576183 | 25.56° C | 62% | 1010.4 hPa | 8.38 mm | - | 57 W/m² | - |
| 1777576123 | 25.56° C | 62% | 1010.3 hPa | 8.38 mm | - | 56 W/m² | - |
| 1777576063 | 25.56° C | 62% | 1010.3 hPa | 8.38 mm | - | 56 W/m² | - |
| 1777576004 | 25.56° C | 62% | 1010.4 hPa | 8.38 mm | - | 55 W/m² | - |
| 1777575943 | 25.56° C | 62% | 1010.4 hPa | 8.38 mm | - | 54 W/m² | - |
| 1777575883 | 25.56° C | 62% | 1010.5 hPa | 8.38 mm | - | 51 W/m² | - |
| 1777575823 | 25.56° C | 62% | 1010.6 hPa | 8.38 mm | - | 47 W/m² | - |
| 1777575763 | 25.56° C | 62% | 1010.6 hPa | 8.38 mm | - | 44 W/m² | - |
| 1777575704 | 25.56° C | 62% | 1010.6 hPa | 8.38 mm | - | 42 W/m² | - |
| 1777575644 | 25.56° C | 62% | 1010.7 hPa | 8.38 mm | - | 41 W/m² | - |
| 1777575583 | 25.56° C | 62% | 1010.7 hPa | 8.38 mm | - | 41 W/m² | - |
| 1777575523 | 25.56° C | 62% | 1010.7 hPa | 8.38 mm | - | 42 W/m² | - |
| 1777575464 | 25.56° C | 62% | 1010.7 hPa | 8.38 mm | - | 43 W/m² | - |
| 1777575403 | 25.56° C | 62% | 1010.7 hPa | 8.38 mm | - | 45 W/m² | - |
| 1777575344 | 25.56° C | 62% | 1010.7 hPa | 8.38 mm | - | 47 W/m² | - |
| 1777575289 | 25.56° C | 62% | 1010.7 hPa | 8.38 mm | - | 51 W/m² | - |
| 1777575282 | 25.56° C | 62% | 1010.8 hPa | 8.38 mm | - | 57 W/m² | - |
| 1777575160 | 25.56° C | 62% | 1010.7 hPa | 8.38 mm | - | 68 W/m² | - |
| 1777575100 | 25.56° C | 62% | 1010.6 hPa | 8.38 mm | - | 81 W/m² | - |
* Rain latest hour (hover to see other rain measurements)
** Current wind speed in m/s (hover to see current wind gust speed)